TimeAST,TemperatureF,Dew PointF,Humidity,Sea Level PressureIn,VisibilityMPH,Wind Direction,Wind SpeedMPH,Gust SpeedMPH,PrecipitationIn,Events,Conditions,WindDirDegrees,DateUTC
12:00 AM,44.2,43.5,97,29.57,-9999.0,East,27.6,35.7,0.09,,Unknown,80,2012-12-19 04:00:00
1:00 AM,44.2,43.5,97,29.55,-9999.0,East,26.5,34.5,0.14,,Unknown,80,2012-12-19 05:00:00
2:00 AM,44,44,98,29.52,,East,27.6,,,,,80,2012-12-19 06:00:00
2:00 AM,44.4,43.7,97,29.52,-9999.0,East,27.6,36.8,0.07,,Unknown,80,2012-12-19 06:00:00
3:00 AM,44.2,43.5,97,29.50,-9999.0,East,27.6,39.1,0.06,,Unknown,80,2012-12-19 07:00:00
4:00 AM,43.9,43.2,97,29.50,-9999.0,ENE,26.5,35.7,0.06,,Unknown,70,2012-12-19 08:00:00
5:00 AM,44,43,95,29.49,,ENE,25.3,,,,,70,2012-12-19 09:00:00
5:00 AM,43.7,43.0,97,29.49,-9999.0,ENE,25.3,35.7,0.25,,Unknown,70,2012-12-19 09:00:00
6:00 AM,43.3,42.8,98,29.48,-9999.0,ENE,21.9,28.8,0.25,,Unknown,60,2012-12-19 10:00:00
7:00 AM,43.2,42.4,97,29.48,-9999.0,ENE,27.6,38.0,0.14,,Unknown,60,2012-12-19 11:00:00
8:00 AM,43,42,96,29.47,,ENE,24.2,,,,,70,2012-12-19 12:00:00
8:00 AM,43.0,42.3,97,29.47,-9999.0,ENE,24.2,35.7,0.14,,Unknown,70,2012-12-19 12:00:00
9:00 AM,42.3,41.4,97,29.47,-9999.0,ENE,25.3,42.6,0.09,,Unknown,60,2012-12-19 13:00:00
10:00 AM,42.1,41.2,97,29.44,-9999.0,ENE,28.8,40.3,0.14,,Unknown,60,2012-12-19 14:00:00
11:00 AM,42,41,94,29.43,,ENE,33.4,,,,,60,2012-12-19 15:00:00
11:00 AM,41.9,40.8,96,29.43,-9999.0,ENE,33.4,43.7,0.09,,Unknown,70,2012-12-19 15:00:00
12:00 PM,41.7,40.6,96,29.42,-9999.0,ENE,27.6,40.3,0.06,,Unknown,70,2012-12-19 16:00:00
1:00 PM,41.0,39.9,96,29.44,-9999.0,ENE,26.5,40.3,0.12,,Unknown,60,2012-12-19 17:00:00
2:00 PM,40,39,95,29.45,,ENE,28.8,,,,,70,2012-12-19 18:00:00
2:00 PM,40.1,39.0,96,29.45,-9999.0,ENE,28.8,40.3,0.06,,Unknown,70,2012-12-19 18:00:00
3:00 PM,39.4,38.5,97,29.47,-9999.0,ENE,23.0,32.2,0.12,,Unknown,60,2012-12-19 19:00:00
4:00 PM,38.3,37.4,97,29.51,-9999.0,ENE,23.0,33.4,0.07,,Unknown,60,2012-12-19 20:00:00
5:00 PM,36,36,98,29.54,,NE,13.8,,,,,40,2012-12-19 21:00:00
5:00 PM,36.1,35.6,98,29.54,-9999.0,NE,13.8,23.0,0.04,,Unknown,40,2012-12-19 21:00:00
6:00 PM,34.7,34.3,99,29.58,-9999.0,NNE,11.5,21.9,0.02,,Unknown,30,2012-12-19 22:00:00
7:00 PM,34.2,33.8,99,29.61,-9999.0,NNE,11.5,21.9,0.06,,Unknown,20,2012-12-19 23:00:00
8:00 PM,34,34,99,29.65,,NNE,11.5,,,,,20,2012-12-20 00:00:00
8:00 PM,34.2,33.8,99,29.65,-9999.0,NNE,11.5,20.7,0.05,,Unknown,20,2012-12-20 00:00:00
9:00 PM,33.8,33.4,99,29.68,-9999.0,North,11.5,19.6,0.07,,Unknown,10,2012-12-20 01:00:00
10:00 PM,33.8,33.4,99,29.71,-9999.0,North,11.5,18.4,0.06,,Unknown,10,2012-12-20 02:00:00
11:00 PM,34,34,99,29.74,,North,12.7,,,,,0,2012-12-20 03:00:00
11:00 PM,34.2,33.8,99,29.74,-9999.0,North,12.7,20.7,0.02,,Unknown,360,2012-12-20 03:00:00